Location: Pandora
(40.9481°N, 83.9611°W)
Time: 14:15:47
(UTC-04:00)

Nauka - Pass Details

Date: 19 September 2021
Orbit: 417 x 423 km, 51.6° (Epoch: 26 October)

Event Time Altitude Azimuth Distance (km) Brightness Sun altitude
Rises 20:10:39 0° 237° (WSW) 2,349 ? -7.1°
Reaches altitude 10° 20:12:44 10° 239° (WSW) 1,490 ? -7.4°
Maximum altitude 20:16:05 75° 325° (NW) 436 ? -8.1°
Drops below altitude 10° 20:19:32 - 51° (NE) 1,538 ? -8.7°
Enters shadow 20:20:33 - 53° (NE) 1,955 ? -8.9°
